#timestamp,LO_Frequency,Hit,StdDev 
1610442015.3,286046999.7,N
1610442035.2,286047002.7,N
1610442055.9,286047002.5,N
1610442075.7,286047001.4,N
1610442095.6,286047004.4,N
1610442115.4,286047001.4,N
1610442135.2,286047004.4,N
1610442155.1,286047003.7,N
1610442156.0,286047003.7,N
1610442175.8,286047001.6,N
1610442195.7,286047001.4,N
1610442215.8,286047002.7,N
1610442235.6,286047002.5,N
1610442255.5,286046999.9,N
1610442275.3,286046998.2,N
1610442295.2,286046998.2,N
1610442315.9,286047001.0,N
1610442335.7,286047000.3,N
1610442355.6,286047000.3,N
1610442375.4,286046998.1,N
1610442395.2,286046998.6,N
1610442415.1,286046998.4,N
1610442416.0,286046998.4,N
1610442435.8,286046996.9,N
1610442455.7,286046999.0,N
1610442475.5,286046998.9,N
1610442495.3,286046997.1,N
1610442515.2,286046995.0,N
1610442535.0,286046997.2,N
1610442535.9,286046997.2,N
1610442555.7,286046997.7,N
1610442575.6,286046996.6,N
1610442595.4,286046999.2,N
1610442615.3,286046999.0,N
1610442635.1,286047000.6,N
1610442636.0,286047000.6,N
1610442655.8,286046999.2,N
1610442675.7,286046997.9,N
1610442695.5,286046997.7,N
1610442715.4,286046996.8,N
1610442735.2,286046997.3,N
1610442755.0,286046997.4,N
1610442756.0,286046997.4,N
1610442775.8,286046996.7,N
1610442795.6,286046996.8,N
1610442815.5,286046997.7,N
1610442835.3,286046998.0,N
1610442855.1,286046996.8,N
1610442875.9,286046999.3,N
1610442895.7,286046996.7,N
1610442915.6,286046995.8,Y
1610442935.4,286046995.3,P
1610442955.2,286046995.9,P
1610442975.1,286046997.7,N
1610442976.0,286046997.7,N
1610442995.8,286046997.1,N
1610443015.7,286046999.2,N
1610443035.5,286046998.1,N
1610443055.3,286046998.4,N
1610443075.2,286046998.1,N
1610443095.0,286046998.1,N
1610443095.9,286046998.1,N
1610443115.8,286046996.5,Y
1610443135.6,286046999.8,P
1610443155.4,286047002.6,N
1610443175.3,286047001.4,N
1610443195.1,286047002.7,N
1610443215.8,286046999.0,N
1610443235.7,286046998.7,N
1610443255.5,286047000.8,N
1610443275.4,286046999.3,N
1610443295.2,286046998.1,N
1610443315.0,286046998.4,N
1610443315.9,286046998.4,N
1610443335.8,286047000.8,N
1610443355.6,286047001.9,N
1610443375.4,286047002.5,N
1610443395.3,286047000.9,N
1610443415.1,286046998.3,N
1610443435.9,286046998.4,N
1610443455.7,286047001.0,N
1610443475.5,286046998.3,N
1610443495.4,286046998.7,N
1610443515.2,286046999.8,N
1610443535.0,286047000.8,N
1610443535.9,286047000.8,N
1610443555.8,286046998.4,N
1610443575.6,286046999.1,N
1610443595.5,286046999.5,N
1610443615.3,286046998.1,N
1610443635.1,286046999.4,N
1610443655.9,286046998.9,N
1610443675.7,286046998.5,N
1610443695.5,286047001.1,N
1610443715.4,286047000.6,N
1610443735.2,286046998.9,N
1610443755.1,286046999.4,N
1610443756.0,286046999.4,N
1610443775.8,286046999.1,N
1610443795.6,286046996.5,N
1610443815.5,286046996.9,N
1610443835.3,286046996.5,N
1610443855.1,286046998.7,N
1610443875.9,286046997.5,N
1610443895.7,286046996.0,N
1610443915.6,286046996.4,N
1610443935.4,286046999.5,N
1610443955.2,286046996.6,N
1610443975.1,286046999.1,N
1610443976.0,286046999.1,N
1610443995.8,286046996.9,N
1610444015.7,286046995.2,Y
1610444035.5,286046998.2,P
1610444055.3,286047001.2,P
1610444075.2,286046998.2,N
1610444095.0,286047000.4,N
1610444095.9,286047000.4,N
1610444115.7,286046998.7,N
1610444135.6,286046999.6,N
1610444155.4,286046999.2,N
1610444175.3,286046999.1,N
1610444195.1,286046998.5,N
1610444196.0,286046998.5,N
1610444215.8,286047001.0,N
1610444235.7,286046998.1,N
1610444255.5,286047000.4,N
1610444275.3,286046998.7,N
1610444295.2,286046998.6,N
1610444315.0,286047001.2,N
1610444315.9,286047001.2,N
1610444335.8,286047001.1,N
1610444355.6,286047000.5,N
1610444375.4,286047001.0,N
1610444395.3,286047001.1,N
1610444415.1,286046998.4,N
1610444435.8,286046999.0,N
1610444455.7,286047002.3,N
1610444475.5,286047001.6,N
1610444495.4,286047002.8,N
1610444515.2,286046999.7,N
1610444535.0,286046998.2,N
1610444535.9,286046998.2,N
1610444555.8,286047001.0,N
1610444575.6,286047000.4,N
1610444595.5,286047000.3,N
1610444615.3,286047000.2,N
1610444635.2,286047002.3,N
1610444655.9,286047000.6,N
1610444675.7,286046999.1,N
1610444695.6,286046998.6,N
1610444715.4,286047000.9,N
1610444735.2,286047000.4,N
1610444755.1,286047000.3,N
1610444756.0,286047000.3,N
1610444775.8,286047002.6,N
1610444795.7,286046999.8,N
1610444815.5,286047000.0,N
1610444835.3,286046999.9,N
1610444855.2,286047001.2,N
1610444875.0,286047000.9,N
1610444875.9,286047000.9,N
1610444895.8,286046999.9,N
1610444915.6,286046999.9,N
1610444935.4,286047002.3,N
1610444955.3,286046999.9,N
1610444975.1,286046999.8,N
1610444995.9,286047001.1,N
1610445015.7,286046996.6,Y
1610445035.5,286046997.0,P
1610445055.4,286046997.0,N
1610445075.2,286046998.8,N
1610445095.0,286046998.6,N
1610445095.9,286046998.6,N
1610445115.8,286047000.7,N
1610445135.6,286046998.2,N
1610445155.5,286046996.9,N
1610445175.3,286047000.7,N
1610445195.1,286047000.9,N
1610445215.9,286046998.4,N
1610445235.7,286047001.0,N
1610445255.6,286046998.4,N
1610445275.4,286046998.8,N
1610445295.2,286047001.2,N
1610445315.1,286046999.7,N
1610445316.0,286046999.7,N
1610445335.8,286047002.4,N
1610445355.7,286047003.4,N
1610445375.5,286047002.6,N
1610445395.3,286047002.8,N
1610445415.2,286046999.7,N
1610445435.0,286047001.0,N
1610445435.9,286047001.0,N
1610445455.8,286047000.0,N
1610445475.6,286047000.9,N
1610445495.4,286046998.3,N
1610445515.3,286046998.3,N
1610445535.1,286046998.7,N
1610445555.8,286046996.7,N
1610445575.7,286046999.6,N
1610445595.5,286047001.0,N
